Location: Asheville, NC
(35.6000°N, 82.5500°W)
Time: 14:25:45
(UTC-04:00)

Vanguard 2 Rocket - Pass Details

Date: 16 December 2017
Orbit: 553 x 3327 km, 32.9° (Epoch: 15 July)

Event Time Altitude Azimuth Distance (km) Brightness Sun altitude
Rises 19:01:38 0° 243° (WSW) 4,427 11.9 -20.2°
Reaches altitude 10° 19:04:05 10° 241° (WSW) 3,735 11.1 -20.7°
Maximum altitude 19:14:25 68° 160° (SSE) 2,393 8.8 -22.7°
Enters shadow 19:23:39 32° 89° (E) 4,037 9.6 -24.6°
Drops below altitude 10° 19:32:05 10° 83° (E) 6,039 - -26.3°
Sets 19:37:18 0° 81° (E) 7,234 - -27.3°
